Location: Atlantic Beach
(40.5890°N, 73.7290°W)
Time: 01:01:00
(UTC+00:00)

Envisat - Pass Details

Date: 28 January 2021
Orbit: 764 x 766 km, 98.1° (Epoch: 03 March)

Event Time Altitude Azimuth Distance (km) Brightness Sun altitude
Rises 11:03:45 0° 8° (N) 3,240 6.2 -12.4°
Reaches altitude 10° 11:06:05 10° 4° (N) 2,310 5.4 -12.0°
Maximum altitude 11:11:04 57° 287° (WNW) 898 3.0 -11.1°
Drops below altitude 10° 11:16:01 10° 210° (SSW) 2,293 5.3 -10.2°
Sets 11:18:20 0° 206° (SSW) 3,215 6.1 -9.7°
